Вернуться в каталог

CZ-6A DEB

АктивенSSO
NORAD 54279·DEBRIS·🇨🇳 China

Запущен Nov 11, 2022 с Taiyuan Satellite Launch Center

Loading…

Ближайшие Пролёты (ближайшие 24 часа)

TLE

СвежийSource: Space-Track

Эпоха: Sep 13, 2026, 23:10 UTC

1 54279U 22151W   26256.96557411  .00000308  00000-0  11927-3 0  9991
2 54279  98.6142 270.7752 0138358 168.4163 192.0260 14.31728196199816

Отслеживайте CZ-6A DEB в реальном времени с AllMySat

Download on the App Store